Weather History for KBKB - October, 2013

Change the Weather History Date:

Sunday, October 27, 2013

  Actual Average (KPOE) Record (KPOE)
Temperature  
Mean Temperature 67 °F -  
Max Temperature 77 °F 73 °F 90 °F (2010)
Min Temperature 57 °F 54 °F 41 °F (1997)
Cooling Degree Days 2    
Growing Degree Days 17 (Base 50)    
Moisture  
Dew Point 62 °F    
Average Humidity 83    
Maximum Humidity 94    
Minimum Humidity 62    
Precipitation  
Precipitation 0.06 in - - ()
Sea Level Pressure  
Sea Level Pressure 30.08 in    
Wind  
Wind Speed 1 mph (South)    
Max Wind Speed 6 mph    
Max Gust Speed -    
Visibility 6 miles    
Events Fog , Rain    
Averages and records for this station are not official NWS values.
T = Trace of Precipitation, MM = Missing Value Source: NWS Daily Summary

Daily Weather History Graph

Daily Weather History Graph

Search for Another Location

Airport or City:

Trip Planner

Search our weather history database for the weather conditions in past years. The results will help you decide how hot, cold, wet, or windy it might be!

Date:

Astronomy

Oct. 27, 2013 Rise Set
Actual Time 7:23 AM CDT 6:27 PM CDT
Civil Twilight 6:58 AM CDT 6:52 PM CDT
Nautical Twilight 6:29 AM CDT 7:20 PM CDT
Astronomical Twilight 6:01 AM CDT 7:48 PM CDT
Moon 12:47 AM CDT (10/27) 2:12 PM CDT (10/27)
Length of Visible Light 11h 53m
Length of Day
11h 04m
Last Quarter, 43% of the Moon is Illuminated
Oct 27
Last Quarter
Nov 3
New
Nov 9
First Quarter
Nov 17
Full
Nov 25
Last Quarter

Hourly Weather History & Observations

Time (CDT) Temp. Dew Point Humidity Pressure Visibility Wind Dir Wind Speed Gust Speed Precip Events Conditions
12:54 AM 59.0 °F 54.0 °F 83% 30.18 in 10.0 mi Calm Calm - N/A   Clear
1:54 AM 57.0 °F 54.0 °F 89% 30.17 in 10.0 mi Calm Calm - N/A   Clear
2:54 AM 60.1 °F 55.0 °F 83% 30.18 in 10.0 mi Calm Calm - N/A   Overcast
3:54 AM 59.0 °F 55.9 °F 90% 30.19 in 10.0 mi Variable 4.6 mph - N/A   Scattered Clouds
4:54 AM 60.1 °F 55.9 °F 86% 30.15 in 10.0 mi Calm Calm - N/A   Mostly Cloudy
5:54 AM 62.1 °F 57.0 °F 84% 30.13 in 10.0 mi Calm Calm - N/A   Overcast
6:54 AM 61.0 °F 57.0 °F 87% 30.15 in 10.0 mi Calm Calm - N/A   Scattered Clouds
7:54 AM 62.1 °F 57.0 °F 84% 30.16 in 10.0 mi Calm Calm - N/A   Mostly Cloudy
8:54 AM 64.0 °F 55.9 °F 75% 30.14 in 10.0 mi Calm Calm - 0.00 in Rain Light Rain
9:54 AM 66.9 °F 57.9 °F 73% 30.16 in 10.0 mi South 3.5 mph - 0.00 in   Scattered Clouds
10:54 AM 69.1 °F 62.1 °F 78% 30.17 in 10.0 mi Calm Calm - N/A   Overcast
11:54 AM 73.0 °F 63.0 °F 71% 30.16 in 10.0 mi Variable 3.5 mph - N/A   Scattered Clouds
12:06 PM 73.4 °F 62.6 °F 69% 30.08 in 10.0 mi Variable 3.5 mph - N/A   Mostly Cloudy
12:23 PM 75.2 °F 62.6 °F 65% 30.06 in 10.0 mi Calm Calm - N/A   Scattered Clouds
12:54 PM 75.0 °F 62.1 °F 64% 30.13 in 10.0 mi Calm Calm - N/A   Mostly Cloudy
1:07 PM 73.4 °F 62.6 °F 69% 30.05 in 10.0 mi Calm Calm - N/A   Overcast
1:17 PM 75.2 °F 62.6 °F 65% 30.04 in 10.0 mi Variable 3.5 mph - N/A   Overcast
1:54 PM 75.0 °F 61.0 °F 62% 30.11 in 10.0 mi Variable 5.8 mph - N/A   Overcast
2:54 PM 77.0 °F 63.0 °F 62% 30.09 in 10.0 mi Variable 3.5 mph - N/A   Overcast
3:25 PM 73.4 °F 64.4 °F 73% 30.01 in 10.0 mi Calm Calm - 0.00 in Rain Light Rain
3:43 PM 75.2 °F 62.6 °F 65% 30.01 in 10.0 mi Calm Calm - 0.00 in   Mostly Cloudy
3:54 PM 75.0 °F 63.0 °F 66% 30.08 in 10.0 mi Calm Calm - 0.00 in   Mostly Cloudy
4:54 PM 73.0 °F 63.0 °F 71% 30.08 in 10.0 mi Calm Calm - N/A   Scattered Clouds
5:37 PM 69.8 °F 66.2 °F 88% 30.00 in 9.0 mi Calm Calm - 0.03 in   Overcast
5:54 PM 69.1 °F 66.0 °F 90% 30.08 in 8.0 mi Calm Calm - 0.03 in   Overcast
6:02 PM 69.8 °F 66.2 °F 88% 30.00 in 8.0 mi Calm Calm - N/A   Overcast
6:13 PM 69.8 °F 66.2 °F 88% 30.00 in 6.0 mi Calm Calm - 0.00 in Rain Light Rain
6:23 PM 69.8 °F 66.2 °F 88% 30.00 in 5.0 mi Calm Calm - 0.00 in Rain Light Rain
6:28 PM 69.8 °F 66.2 °F 88% 30.00 in 1.8 mi Calm Calm - 0.03 in Rain Rain
6:37 PM 69.8 °F 66.2 °F 88% 30.00 in 3.0 mi Calm Calm - 0.03 in Rain Light Rain
6:54 PM 69.1 °F 66.0 °F 90% 30.09 in 6.0 mi Calm Calm - 0.03 in   Overcast
7:28 PM 68.0 °F 64.4 °F 88% 30.01 in 3.0 mi Calm Calm - N/A   Mostly Cloudy
7:42 PM 66.2 °F 64.4 °F 94% 30.02 in 1.8 mi Calm Calm - N/A   Mostly Cloudy
7:54 PM 68.0 °F 64.9 °F 90% 30.10 in 2.5 mi Calm Calm - N/A   Mostly Cloudy
8:05 PM 68.0 °F 66.2 °F 94% 30.02 in 5.0 mi Calm Calm - N/A   Overcast
8:54 PM 68.0 °F 64.9 °F 90% 30.11 in 3.0 mi Calm Calm - N/A   Overcast
8:59 PM 66.2 °F 64.4 °F 94% 30.03 in 1.8 mi Calm Calm - N/A   Mostly Cloudy
9:05 PM 66.2 °F 64.4 °F 94% 30.03 in 0.8 mi Calm Calm - N/A   Mostly Cloudy
9:37 PM 66.2 °F 62.6 °F 88% 30.03 in 0.5 mi Calm Calm - N/A Fog Fog
9:54 PM 64.9 °F 63.0 °F 93% 30.12 in 0.5 mi Calm Calm - N/A Fog Fog
10:03 PM 64.4 °F 62.6 °F 94% 30.04 in 2.0 mi Calm Calm - N/A   Mostly Cloudy
10:10 PM 64.4 °F 62.6 °F 94% 30.04 in 0.8 mi Calm Calm - N/A   Mostly Cloudy
10:25 PM 64.4 °F 62.6 °F 94% 30.04 in 1.0 mi Calm Calm - N/A   Mostly Cloudy
10:30 PM 64.4 °F 62.6 °F 94% 30.04 in 0.5 mi Calm Calm - N/A Fog Fog
10:54 PM 64.0 °F 62.1 °F 93% 30.12 in 0.5 mi Calm Calm - N/A Fog Fog
11:06 PM 64.4 °F 60.8 °F 88% 30.04 in 0.5 mi Calm Calm - N/A Fog Fog
11:48 PM 62.6 °F 60.8 °F 94% 30.03 in 1.0 mi Calm Calm - N/A   Mist
11:54 PM 63.0 °F 61.0 °F 93% 30.12 in 1.8 mi Calm Calm - N/A   Scattered Clouds